ONEWEB-0010, 44058

Orbit data source: Space-Track

ONEWEB-0010, 44058 is a payload satellite owned by One Web (UK) in LEO that was launched on Wed, 27 Feb 2019 UTC via a SOYUZ-ST-B launch vehicle from the French Guiana (FRGUI). Payload-class satellites include a variety of spacecraft equipped with specific instruments for various scientific and technological missions. These include communications satellites like Starlink; space stations such as the ISS; scientific satellites like the Hubble; Earth observation satellites from companies like Planet Labs, Umbra, and HawkEye 360; GPS; miniature CubeSats for education and research; and military/defense satellites.

Loading next visibility...
Identifier
44058, 2019-010B
Orbit
LEO
Country
Flag of UKUK
Related business
Manufacturer
Airbus/Toulouse
Mission
Operational Commercial Communications
Bus & Motor
ARROW, Unknown motor
Mass
148 kg wet, ~140 kg dry
Launch date (UTC)
2019-02-27 (7 years ago)
Launch vehicle
SOYUZ-ST-B
Launch site
French Guiana (FRGUI)
Object type
Payload
Rocket body
Debris
Shape & HBR
Trap Box + 2 Pan, 2.5 m
Radar Cross Section
2.957 m², Large (>1 m²)

Expand to show TLE details & history
Last TLE update: 21 hours ago

TLE from 21 hours ago
0 ONEWEB-0010
1 44058U 19010B   25260.60142207  .00000066  00000-0  13866-3 0  9998
2 44058  87.8977 283.1087 0001537  99.7969 260.3336 13.16594510315741
Epoch: 2025-09-17T14:26Z
TLE epoch observation values (Epoch: 2025-09-17T14:26:02.866Z)
Latitude
0.00001°
Longitude
69.82173°
Altitude
1,200.848 km
Speed
7.253 km/s
True Right ascension
18h 52m 26s
True Declination
0° 00' 00"
Sunlit
Object was in daylight at epoch
Visualization orbit readout
Latitude
Unknown
Longitude
Unknown
Altitude
Unknown
Speed
Unknown
Apparent Right ascension
Unknown
Apparent Declination
Unknown
Sunlit
N/A
Visualization observer readout
Local Sidereal Time
04:04:02
Azimuth
Unknown
Elevation
Unknown
Doppler factor
Unknown
Orbital elements
Apogee altitude
1,196.03 km
Perigee altitude
1,193.702 km
Semi-major axis
7,573.003 km
Eccentricity
0.00015
Inclination
87.8977°
RAAN
283.1087°
Arg. of periapsis
99.7969°
True anomaly
260.31624°
Mean anomaly
260.3336°
Eccentric anomaly
260.32492°
Mean motion
3.29337 °/min
Orbital period
109.31 mins
BSTAR
0.00013866
Loading maneuver chart data...
Computing Atmospheric mass density...
Loading historical data...
Loading historical data...
Loading historical data...
Loading historical data...
Loading historical data...
Loading historical data...
Loading historical data...
Other satellites on launch #10 in the year 2019 (2019-02-27 UTC)

Documentation

Showing up to 5 results
|